Theta_e
326 326 326 326 327 327 328 328 328 328 329 329 329 329 329 328 328 328 328 328 329 329 329 329 329 329 328 328 329 329 328 328 328 328 328 327 327 327 327 327 326 325 324 323 321 321 320 319 317 316 314 311 307 304 301 299 297 294 293 292 292 292 292 291 291 290 290 291 291 291 290 289 289 288 287 287 286 286 285 284 284 284 284 284 284
326 326 326 326 327 327 327 327 328 328 329 329 329 329 329 329 329 328 329 329 328 328 328 329 329 328 328 328 328 328 328 328 328 328 327 327 326 325 325 325 325 324 323 322 321 320 319 317 316 315 313 310 307 304 301 298 295 293 292 292 292 292 291 291 291 291 290 290 290 290 289 288 288 287 287 286 286 285 285 284 284 284 284 284 284
323 324 325 326 326 327 327 327 328 328 328 328 329 329 329 329 330 329 329 329 328 329 328 328 328 328 328 328 328 328 328 328 327 327 327 326 325 325 325 325 325 323 322 321 320 319 318 316 315 313 310 308 305 302 300 296 292 292 292 292 291 291 291 290 290 290 290 289 289 288 288 287 287 287 287 286 285 285 284 284 284 284 284 284 284
317 318 320 322 323 325 325 326 327 327 328 328 328 329 329 329 329 329 329 329 328 328 328 328 328 328 328 328 328 328 328 328 328 327 326 324 323 323 324 325 325 323 321 321 320 319 318 316 313 311 309 306 303 300 297 294 291 291 292 291 291 291 290 290 290 289 289 289 288 287 287 287 287 286 286 286 285 285 284 283 283 283 283 284 284
313 313 315 316 317 319 320 321 323 323 324 326 326 327 328 328 328 328 328 328 328 328 328 328 328 328 328 328 328 328 328 328 327 326 325 324 323 323 324 325 323 321 320 321 320 318 317 316 314 311 308 305 301 298 295 291 291 291 291 291 290 290 290 289 289 288 288 288 288 287 286 286 286 286 286 285 285 285 284 283 283 283 283 283 283
311 311 312 314 314 316 317 318 319 320 322 323 324 325 326 326 327 327 327 327 327 327 327 328 328 328 328 328 328 328 327 326 325 325 324 325 325 324 323 322 320 317 318 320 319 317 316 316 314 311 308 304 301 297 292 290 291 291 291 290 290 289 289 289 288 288 288 287 287 287 286 286 286 286 285 285 285 284 284 283 283 283 283 283 283
310 310 311 312 313 315 317 318 320 321 322 323 324 325 325 325 326 326 327 327 327 327 327 327 328 328 328 329 328 328 328 327 326 326 325 324 325 323 320 318 315 314 316 318 316 315 315 315 314 311 307 305 301 295 291 290 290 291 290 290 289 289 289 288 288 288 287 286 286 287 286 286 286 285 285 284 284 284 283 283 283 283 283 283 283
309 310 310 311 313 315 317 320 321 322 323 323 324 324 324 325 325 325 326 326 327 327 327 328 328 327 327 328 328 328 327 326 325 324 323 323 323 321 318 315 313 313 314 313 312 313 314 314 312 309 306 304 300 294 290 291 291 290 290 290 289 289 288 288 288 287 286 286 286 286 286 286 286 285 284 284 284 284 283 283 283 282 282 283 283
311 311 311 311 312 314 316 318 319 320 321 321 322 322 322 322 323 323 323 324 325 325 325 326 326 326 325 325 325 325 324 324 324 323 322 322 322 319 316 314 312 313 313 310 309 310 311 311 310 307 305 302 298 292 290 291 291 291 290 289 289 289 288 288 287 286 286 286 286 286 286 286 286 285 284 284 284 284 283 283 282 282 282 282 283
312 313 313 313 313 314 315 315 315 315 315 315 316 316 317 318 319 320 320 320 321 321 322 322 322 322 323 323 323 323 323 323 323 322 322 321 320 318 315 313 313 313 311 309 309 311 311 309 308 306 303 300 294 290 290 291 291 291 291 291 290 289 288 287 287 286 286 286 286 286 286 286 286 285 285 285 284 283 283 282 282 281 281 281 282
312 313 314 314 314 314 313 312 312 311 310 310 310 310 312 314 315 316 317 318 319 319 320 320 320 321 321 321 322 322 321 321 321 321 320 319 318 315 313 313 312 311 309 308 310 312 311 307 305 304 300 296 292 289 289 290 290 291 291 291 290 290 289 288 287 286 286 286 286 286 286 286 286 286 285 284 284 283 283 282 281 280 280 280 280
311 312 312 313 312 312 311 309 308 307 306 306 307 308 310 312 313 315 316 317 318 318 318 318 318 319 319 319 320 320 319 319 319 318 317 316 315 313 312 312 311 309 308 309 310 310 309 306 304 301 298 294 291 289 289 289 290 290 290 290 290 289 289 289 288 288 287 287 287 286 286 286 286 286 285 284 284 283 283 282 280 280 279 279 279
311 311 311 310 309 309 308 307 306 305 304 304 305 307 308 310 311 313 314 315 316 316 316 316 316 316 317 317 317 317 317 316 316 315 314 314 313 311 310 310 309 308 308 308 308 307 305 303 302 300 296 292 290 289 289 289 289 289 289 289 288 288 288 288 288 288 288 288 287 287 287 287 286 286 285 285 284 283 282 282 280 280 279 279 279
309 309 309 308 307 307 305 304 304 303 302 302 303 305 306 308 309 311 312 313 313 313 314 314 314 314 314 314 314 314 314 314 313 313 312 311 310 309 309 308 307 307 305 304 303 302 301 302 302 299 295 291 290 289 288 288 288 288 288 287 287 287 287 287 287 287 287 287 287 287 287 286 286 286 285 285 284 284 283 282 280 280 279 279 279
307 307 307 305 304 303 302 302 302 302 303 304 305 305 305 306 307 308 309 310 311 312 312 312 312 312 312 312 312 313 313 313 312 311 310 309 309 308 307 306 305 304 303 304 304 303 303 304 303 300 295 291 289 289 288 288 288 287 287 287 287 287 287 287 287 287 287 287 287 286 286 285 285 285 284 284 284 283 282 281 280 279 279 279 279
306 305 304 303 302 301 301 302 302 303 304 305 306 307 307 307 307 308 308 309 310 310 310 310 310 311 311 312 311 312 312 311 310 309 308 307 307 306 305 304 303 302 302 304 304 304 303 302 299 296 293 290 289 288 288 288 287 287 287 287 287 287 287 287 287 287 286 286 286 285 285 284 284 284 284 283 283 282 281 280 279 279 278 278 278
304 303 302 302 302 301 301 302 302 303 305 306 306 307 308 308 308 308 308 309 309 310 309 309 309 310 310 310 310 310 310 309 308 307 305 305 304 304 303 302 300 300 299 300 300 299 298 297 295 293 290 288 288 288 287 287 287 287 287 287 286 286 287 287 286 286 286 285 285 285 284 284 283 283 283 283 282 282 280 280 279 279 278 277 277
302 301 301 301 301 301 301 302 303 304 305 306 307 307 307 308 307 307 308 307 307 307 307 307 307 307 307 307 307 307 306 305 305 304 304 303 303 302 302 300 299 298 298 298 298 298 297 296 293 291 289 288 288 287 287 287 287 287 287 287 286 287 287 287 286 286 285 285 284 284 283 283 283 283 283 282 282 282 281 281 281 280 279 278 278
301 301 301 301 301 301 301 301 302 304 305 306 307 307 307 307 307 306 306 306 305 305 305 304 304 305 305 305 305 304 304 303 303 302 302 302 301 301 301 300 298 297 297 297 296 296 295 293 291 289 289 288 288 287 287 287 287 287 287 287 286 287 288 287 286 286 285 285 284 284 283 283 283 283 282 282 282 282 282 281 281 280 279 279 278
301 301 300 300 301 301 301 301 302 303 305 306 305 305 305 305 305 305 304 304 304 304 304 303 303 304 304 304 304 303 303 302 302 302 302 301 300 300 299 299 298 297 296 296 295 293 292 291 290 289 288 288 288 287 287 287 287 287 287 287 286 287 288 287 286 286 286 285 285 284 283 283 283 282 282 282 282 282 281 281 280 280 280 279 279
300 299 299 300 301 301 302 302 302 303 304 305 304 303 303 304 304 304 303 303 302 302 303 302 302 303 303 302 302 302 302 302 302 302 302 301 301 300 299 299 299 298 296 295 294 293 292 291 290 289 288 288 288 287 287 287 287 287 286 286 286 287 287 286 286 286 285 285 284 284 283 283 282 282 282 282 282 281 280 280 280 280 279 279 279
299 299 299 300 301 302 302 302 302 303 303 303 303 303 303 303 303 303 302 301 301 301 301 301 301 302 302 302 301 301 301 301 301 301 300 300 299 299 299 299 298 297 295 294 293 292 292 291 290 289 288 287 287 287 286 286 286 286 286 286 285 285 286 286 286 285 285 284 284 283 283 282 282 282 282 281 281 281 280 279 279 279 279 279 279
298 298 299 299 301 302 302 302 302 303 303 303 303 303 303 302 302 301 301 300 299 299 299 299 299 300 301 300 299 299 299 299 298 298 297 297 297 297 297 296 296 294 293 292 292 291 291 290 289 288 287 287 286 286 285 285 285 285 285 284 284 285 285 284 284 284 284 284 283 283 283 282 282 282 282 282 282 281 280 279 278 278 278 278 278
297 298 299 300 301 302 302 303 303 302 303 303 303 302 302 301 300 299 299 298 298 297 297 296 297 297 298 298 297 296 296 296 296 296 295 295 294 294 294 294 293 292 291 291 290 290 289 288 288 287 286 286 285 285 284 284 284 284 284 284 284 284 284 283 283 283 283 283 282 282 282 282 281 281 282 282 282 281 280 279 278 278 277 277 277
297 298 299 299 300 301 301 302 302 302 302 301 302 301 300 299 298 297 296 296 296 296 296 295 295 295 295 295 294 294 294 294 294 294 293 293 292 291 291 292 291 291 290 289 289 288 287 287 286 286 286 285 285 284 284 284 283 284 285 285 284 284 283 283 283 283 282 282 282 282 282 282 282 282 282 282 281 280 279 279 278 277 277 276 276
298 298 298 299 299 300 300 300 300 301 300 300 301 301 300 300 298 296 295 295 295 296 295 294 294 293 293 293 293 293 294 294 294 293 292 292 291 290 290 290 290 290 289 289 288 287 286 286 285 285 285 285 284 284 284 284 283 284 285 286 285 285 284 283 283 283 282 282 282 282 282 282 282 281 281 280 280 279 279 279 278 277 277 276 275
297 297 297 298 298 299 299 298 298 299 298 298 299 299 299 299 298 296 295 294 294 294 294 293 293 293 293 293 292 293 293 294 293 292 292 291 290 289 289 289 289 289 288 288 287 286 286 285 285 285 284 284 284 283 283 283 283 283 284 285 285 285 285 284 284 283 283 283 282 282 282 282 281 281 280 280 279 279 279 278 278 277 277 276 275
296 296 297 297 297 297 298 297 297 296 296 296 296 296 296 297 296 296 296 296 295 295 294 294 294 295 294 293 292 292 292 292 291 290 290 289 288 288 288 288 288 288 288 287 287 286 285 285 284 284 284 283 283 283 283 282 283 283 283 284 285 285 285 284 284 283 283 283 282 281 281 281 280 280 280 279 279 278 278 278 277 277 276 275 274
295 295 296 295 295 296 296 296 296 295 294 294 295 295 295 296 296 296 296 296 296 296 296 295 295 294 293 292 291 290 290 289 289 288 288 287 287 287 287 287 287 287 287 287 286 286 285 285 284 284 284 283 283 283 283 282 282 282 283 283 284 285 285 284 284 283 283 283 282 281 281 281 280 279 279 278 278 278 278 277 277 276 275 274 274
294 293 293 293 293 294 294 294 294 294 293 293 293 293 293 294 294 294 294 293 292 293 293 293 292 291 291 290 289 289 288 287 287 287 286 286 286 286 286 286 286 286 286 286 286 285 285 284 284 284 283 283 283 283 283 282 282 282 282 283 283 284 284 284 284 283 283 283 282 282 281 280 279 279 278 278 277 277 277 277 276 276 275 274 273
291 291 291 292 292 292 292 292 292 292 292 292 292 291 290 289 289 290 290 290 289 289 289 289 289 288 288 287 287 286 286 286 286 286 285 285 285 285 284 284 285 285 285 285 285 285 285 284 284 283 283 283 282 282 282 282 282 282 282 282 282 283 283 283 283 283 282 282 281 281 280 279 278 278 278 277 277 276 276 276 276 275 274 274 273
289 289 289 290 290 290 290 290 290 291 290 290 290 289 287 286 286 286 287 287 287 286 286 286 286 286 285 285 285 285 284 284 284 284 284 284 284 284 284 284 284 284 284 285 285 285 284 284 284 283 283 282 282 282 282 282 282 282 281 281 281 282 282 282 282 282 281 281 280 280 279 278 278 277 277 276 276 275 275 275 275 274 274 273 273
288 288 288 288 288 289 289 289 289 289 289 288 288 287 286 285 284 284 284 284 284 284 284 284 284 284 284 284 284 284 284 284 284 284 283 283 283 283 283 283 283 283 284 284 284 284 284 284 283 283 283 282 282 282 281 281 281 281 281 281 281 281 281 281 281 280 280 280 279 279 278 278 277 277 276 276 275 274 274 274 274 274 273 273 273
288 288 288 288 287 288 288 288 288 288 287 287 287 286 286 286 284 283 283 283 283 283 283 283 283 283 284 284 284 284 284 284 284 283 283 283 282 282 282 282 282 283 284 285 284 284 284 283 283 283 283 282 282 282 281 281 281 281 280 280 280 280 280 279 279 279 279 279 278 278 278 277 276 276 275 275 274 274 273 273 273 273 273 273 273
288 288 288 288 288 287 287 287 287 287 286 286 286 286 286 285 285 284 283 283 282 282 282 282 282 283 283 283 283 283 283 283 283 283 283 282 282 282 282 282 282 283 284 284 284 284 284 283 283 283 283 282 282 282 282 281 281 281 280 280 280 280 279 279 278 278 278 278 277 277 277 276 276 275 274 274 273 273 273 273 273 273 273 273 273
288 287 287 287 287 287 286 286 286 286 286 286 286 285 285 285 284 284 283 283 282 282 281 281 282 282 282 282 282 282 282 283 283 282 282 282 282 282 282 282 282 282 282 283 283 283 283 283 282 282 282 282 282 282 282 281 281 281 281 280 280 280 279 279 278 278 278 277 277 277 276 275 275 275 274 273 273 273 273 273 272 272 272 272 272
288 287 286 286 286 286 285 285 285 285 285 284 284 284 284 284 283 283 283 282 282 281 281 281 281 281 282 282 282 282 282 282 282 282 282 281 282 282 282 282 282 282 282 282 282 282 282 282 282 281 281 281 281 281 281 281 281 281 280 280 280 280 279 279 279 278 278 277 277 277 276 275 275 274 274 273 272 272 272 272 272 272 272 272 272
287 286 285 285 285 285 284 284 283 283 283 283 283 283 283 282 282 282 282 281 281 281 281 280 281 281 281 281 281 281 282 282 282 282 281 281 280 280 281 281 281 281 281 281 280 280 280 280 280 280 280 280 280 280 280 280 280 280 280 280 280 279 279 279 279 278 278 277 277 277 276 275 275 274 273 273 272 272 272 272 271 271 271 271 271
285 285 284 284 284 284 283 283 283 283 283 282 283 283 282 281 281 281 281 281 280 280 280 279 279 279 279 279 280 280 280 280 280 280 280 279 279 279 279 279 279 279 278 278 278 278 278 278 278 278 278 278 278 278 279 279 278 278 278 278 278 278 278 278 278 278 278 277 277 277 276 275 275 274 273 273 272 272 271 271 271 271 271 271 271
284 283 283 283 283 283 283 283 283 283 282 282 282 282 281 281 281 281 280 279 278 278 277 277 277 276 277 277 278 279 279 279 278 278 278 278 278 277 277 277 277 277 277 277 276 276 276 276 276 276 276 276 276 276 276 276 276 276 276 276 276 277 277 277 277 277 277 277 277 276 276 275 275 274 273 272 272 272 271 271 271 271 270 270 271
283 282 282 283 283 283 282 282 282 281 281 281 281 281 280 280 279 279 278 278 277 277 277 276 276 276 277 277 277 278 278 278 277 277 277 276 276 276 276 275 275 275 275 274 274 274 274 274 274 274 273 273 273 273 273 273 273 273 274 274 274 275 275 275 275 276 276 276 275 275 275 275 274 273 273 272 272 271 271 270 270 270 270 270 270
283 282 281 282 282 281 281 280 280 280 280 279 279 279 278 278 278 278 278 278 277 277 277 277 277 277 277 277 277 277 277 277 276 276 276 275 275 275 274 274 273 273 273 273 272 272 272 272 272 272 271 271 271 271 271 271 271 270 271 271 272 272 273 273 274 274 274 274 274 274 274 274 273 273 272 272 271 271 270 270 270 269 269 269 269
282 281 280 280 280 280 280 279 279 278 278 278 278 277 277 278 278 278 278 278 278 277 277 277 277 276 276 277 276 276 276 276 276 275 275 274 274 273 273 273 272 272 272 271 271 271 270 270 270 270 270 270 269 269 269 268 268 268 268 269 269 270 271 271 272 272 273 273 273 273 273 273 273 272 272 271 271 270 270 269 269 269 269 269 269
280 279 279 278 278 278 278 277 277 277 277 277 277 277 277 278 278 278 278 278 277 277 277 276 276 276 275 275 275 275 275 274 274 274 274 273 273 273 272 272 272 271 271 271 270 270 270 270 270 269 269 269 269 268 268 267 267 267 267 267 267 268 268 269 270 270 271 271 271 272 272 272 272 271 271 270 270 269 269 269 269 268 268 268 268
279 278 278 277 277 276 276 276 276 276 276 277 277 277 277 277 277 277 277 277 277 276 276 275 274 274 273 273 273 273 273 273 273 273 272 272 272 271 271 271 270 270 270 270 270 269 269 269 268 268 268 268 268 267 267 267 266 266 266 266 266 266 267 267 267 268 269 269 270 270 270 271 271 270 270 270 270 269 269 269 268 268 267 268 268
277 277 277 277 276 276 275 276 276 276 276 277 277 277 277 277 277 276 276 276 275 274 274 273 272 272 271 271 271 271 271 271 271 271 271 270 270 270 269 269 269 268 268 268 268 268 268 268 267 267 267 267 267 266 266 266 266 266 266 266 266 266 266 266 266 267 267 267 268 268 269 269 269 270 269 269 269 269 268 268 268 267 267 267 267
276 276 276 276 276 276 276 275 276 276 276 276 276 276 276 275 275 275 274 274 273 272 272 271 271 271 271 271 271 271 271 270 270 270 269 269 269 268 268 268 268 267 267 267 267 267 267 267 267 266 266 266 266 266 266 266 266 266 266 266 265 266 266 266 266 266 266 266 267 267 267 268 268 268 269 268 268 268 268 267 267 267 267 267 267
276 276 276 276 276 276 275 275 275 275 275 275 274 274 274 273 273 272 272 271 271 270 270 270 270 270 270 270 270 270 269 269 269 269 268 268 268 267 267 267 267 266 266 267 267 266 266 266 266 266 266 266 266 266 266 266 266 266 266 266 266 266 266 266 266 265 265 266 266 266 266 267 267 267 268 268 268 267 267 267 267 267 266 267 267
275 275 275 275 275 275 275 274 274 274 273 273 273 272 272 272 271 270 270 270 269 269 269 269 269 269 269 269 269 269 268 268 268 268 268 267 267 266 266 266 266 265 265 266 266 266 266 266 266 265 265 266 266 265 266 266 266 266 266 266 266 266 266 265 265 265 265 265 265 266 265 265 266 266 266 267 267 267 267 266 266 266 266 266 266
275 275 275 274 274 274 274 273 273 273 272 272 272 271 270 270 270 269 269 269 269 269 269 269 269 269 268 268 268 268 267 267 267 267 266 266 266 265 265 265 265 265 265 265 265 265 265 265 265 265 265 265 265 265 265 265 266 266 266 266 266 265 265 265 265 265 265 265 265 265 265 265 265 265 265 266 266 266 266 266 266 266 266 266 266
274 274 274 273 273 273 273 272 272 272 271 271 270 270 269 269 269 268 268 268 268 268 268 268 267 267 267 267 266 266 266 266 266 265 265 265 265 264 264 264 264 264 264 264 265 265 265 265 265 265 265 265 265 265 265 266 266 266 266 266 265 265 265 265 265 264 264 264 264 264 264 264 264 264 265 265 265 265 265 265 265 265 265 265 265
Wind_Speed
36 37 37 37 37 37 37 38 38 38 37 37 38 40 40 39 38 38 37 38 39 38 39 39 39 39 39 38 39 39 39 39 38 39 39 40 41 42 42 41 38 37 35 32 32 33 35 35 32 29 28 27 27 27 26 25 24 25 24 23 23 19 16 16 12 9 11 14 15 14 13 12 12 11 11 10 9 7 6 6 6 8 8 7 5
31 32 33 33 36 37 37 36 35 35 35 36 37 38 38 39 38 38 38 39 38 38 39 39 39 39 39 38 38 38 39 38 39 39 40 40 41 40 40 39 37 37 36 35 35 35 35 34 31 29 29 29 29 29 28 27 26 27 26 23 23 21 18 17 14 12 13 14 16 15 13 12 12 11 11 9 8 7 7 6 6 8 9 7 4
27 28 29 30 32 33 34 33 33 33 33 35 36 37 37 37 37 37 38 38 38 38 38 38 38 38 38 37 37 38 39 39 39 40 41 42 42 41 41 39 38 38 39 39 38 37 36 35 32 31 31 30 31 30 29 29 29 28 27 24 23 22 20 18 15 14 15 16 16 15 14 12 12 11 11 10 9 8 7 7 6 7 9 7 4
22 23 24 26 27 28 29 30 30 30 31 33 34 35 35 35 35 36 36 36 36 36 36 36 37 37 37 36 37 38 39 39 39 41 42 40 38 39 39 38 40 42 42 41 40 39 38 36 34 32 31 31 32 32 31 31 30 29 27 25 24 22 21 19 16 15 16 17 16 15 14 12 11 11 11 10 10 9 8 7 6 7 8 7 5
19 20 22 23 24 25 26 26 27 28 29 30 31 32 32 33 33 33 34 34 34 34 34 35 35 35 36 36 36 37 38 39 40 40 38 33 31 34 37 40 43 45 44 41 41 41 38 36 35 33 32 32 33 33 33 33 31 29 27 26 25 23 21 20 18 16 16 17 17 16 14 12 11 11 11 11 11 11 10 8 7 7 8 7 5
20 21 21 22 22 23 23 24 24 25 26 26 27 27 28 28 29 30 30 31 31 32 33 34 34 34 35 35 35 36 37 38 37 34 32 32 35 39 41 42 44 43 42 41 41 41 37 35 34 33 33 34 35 35 35 34 32 30 29 27 25 24 22 21 20 17 15 15 16 15 15 13 12 11 12 12 12 12 11 10 8 6 7 7 6
20 20 21 21 22 22 22 22 22 22 23 23 23 23 22 23 23 24 26 27 28 29 30 31 32 33 34 34 34 34 35 36 35 33 32 34 36 39 41 42 40 38 39 40 40 39 36 34 33 34 34 35 37 38 37 35 33 31 30 28 26 25 23 22 21 19 16 15 15 15 14 13 12 12 13 13 13 13 12 11 9 6 6 7 7
18 19 20 21 22 22 21 21 21 21 22 22 22 22 21 20 19 18 20 23 25 27 27 28 29 30 31 32 33 34 35 35 32 29 30 32 36 39 40 39 37 36 36 36 35 35 34 33 32 32 33 34 37 39 38 36 34 32 30 28 27 25 24 23 22 20 18 17 16 15 14 14 14 14 14 14 14 14 13 12 11 7 5 6 7
17 18 19 21 21 21 20 20 20 20 21 21 21 21 21 20 19 18 18 18 20 21 22 24 25 26 28 29 30 31 32 31 27 27 30 33 37 39 38 37 35 35 34 33 32 32 31 31 30 30 31 34 37 38 37 35 34 33 31 30 28 26 25 24 23 21 20 18 17 15 14 15 17 17 18 18 17 15 13 12 11 8 6 6 7
18 18 19 20 19 19 19 19 20 20 20 20 21 22 22 22 22 22 22 21 20 20 20 21 22 24 24 24 25 27 28 29 28 30 34 35 36 37 36 35 35 35 35 33 31 30 31 30 30 30 31 34 37 37 36 35 33 32 31 31 29 28 27 26 24 23 21 20 19 18 16 18 21 21 21 20 17 15 14 13 11 9 7 6 6
21 21 20 19 18 18 18 19 19 19 19 18 18 18 19 20 21 22 22 23 22 21 21 22 23 23 23 23 25 26 29 30 31 33 34 34 34 34 33 33 34 34 33 32 31 32 32 31 29 29 31 35 37 37 36 34 33 31 30 29 28 28 28 27 26 24 23 22 21 20 21 22 22 21 20 19 18 17 15 13 11 9 7 5 5
22 22 21 20 20 20 19 18 18 18 18 18 17 17 17 18 19 20 19 20 20 20 20 21 21 21 21 22 23 25 26 27 29 29 30 29 30 31 31 33 33 32 32 32 32 32 31 30 29 29 32 35 37 37 35 34 33 31 29 27 27 27 26 25 24 24 24 23 22 22 24 23 21 20 20 20 18 17 15 13 11 10 7 6 7
23 23 22 22 22 22 21 20 19 18 17 16 17 18 18 17 17 18 18 17 18 18 18 18 18 19 20 21 21 22 22 23 23 24 25 26 27 27 29 31 32 31 32 32 31 31 30 29 28 30 33 35 36 36 35 33 32 30 28 27 26 25 24 23 22 21 22 23 24 24 23 22 21 20 19 18 17 16 16 14 12 11 10 10 9
24 23 23 23 23 22 21 20 18 16 12 11 12 15 16 16 15 14 14 13 13 12 12 13 13 14 14 15 16 16 17 18 19 20 21 22 23 25 27 28 29 29 29 28 28 28 27 26 27 31 34 36 37 36 35 33 32 30 29 28 26 26 25 25 24 23 23 24 24 23 21 19 18 17 16 17 17 16 15 14 13 12 11 11 10
24 24 23 23 22 20 18 17 15 13 11 10 10 11 12 13 14 13 13 12 12 12 12 12 12 12 11 12 11 12 13 15 16 18 19 20 21 23 25 26 27 26 26 26 27 27 26 26 28 32 35 37 38 37 35 34 33 31 30 29 28 28 27 27 27 27 26 26 25 23 20 18 18 17 16 17 16 15 14 13 12 12 11 10 10
24 24 24 22 21 18 16 15 14 12 12 12 12 12 11 11 13 13 14 14 13 13 13 13 14 14 14 13 12 12 13 14 15 16 16 17 19 21 23 24 25 25 25 26 27 27 27 27 28 31 34 37 37 36 35 34 33 31 31 30 30 29 29 28 28 27 27 26 25 22 20 18 18 18 17 16 16 15 14 13 12 12 10 9 11
24 23 22 20 19 17 15 15 14 13 14 14 13 13 13 13 13 13 13 13 13 13 13 13 13 13 13 14 13 13 13 13 13 13 14 14 16 19 21 21 22 22 23 24 25 25 25 26 27 30 33 34 35 34 34 33 32 32 32 31 30 30 30 30 29 27 27 26 25 23 21 20 20 19 18 17 17 16 15 15 15 13 11 9 9
21 20 20 19 18 16 15 14 14 14 14 14 13 13 13 12 12 11 11 11 11 11 11 10 11 11 11 12 11 12 12 11 11 11 11 12 14 17 20 21 22 22 23 23 24 24 25 26 28 31 33 34 35 35 35 35 34 34 33 32 31 32 33 32 30 29 27 26 25 23 22 22 21 20 19 18 16 17 18 18 16 14 14 13 10
20 20 20 19 18 16 15 14 14 14 13 13 13 12 11 10 9 9 9 9 8 8 8 8 9 9 9 9 9 10 10 10 10 10 11 13 15 18 20 22 23 23 23 23 23 24 25 27 28 31 33 34 35 36 37 37 37 36 35 34 34 35 35 34 32 30 28 27 27 25 24 23 22 21 20 18 17 18 21 20 18 17 17 16 14
19 19 18 17 17 16 15 15 14 13 12 12 12 12 11 10 10 9 9 10 9 9 8 8 8 8 7 7 8 8 9 8 8 9 10 13 16 18 20 21 22 22 22 22 22 23 25 26 29 31 32 33 34 35 36 37 38 37 37 36 36 36 34 33 30 29 28 28 28 26 24 24 23 22 23 21 20 21 23 23 22 21 19 18 16
16 16 16 16 17 17 16 15 14 13 12 12 11 11 11 10 10 10 10 11 10 10 9 8 7 6 5 5 5 6 6 6 7 7 9 11 14 17 19 20 21 22 22 22 23 24 25 27 29 31 32 33 33 33 34 36 37 37 36 36 35 33 31 30 28 27 28 28 27 26 25 24 24 24 25 24 23 24 25 25 24 22 21 20 19
16 16 16 16 18 18 16 15 15 15 15 13 12 12 12 11 10 10 10 11 11 10 9 9 8 6 5 5 5 5 5 6 7 8 9 10 13 15 17 19 20 20 21 22 23 24 25 26 27 29 30 31 32 32 32 33 34 35 35 34 33 31 29 27 25 25 27 27 26 26 26 26 26 27 27 25 24 25 26 26 25 24 23 22 20
17 17 18 19 20 19 18 18 17 17 17 16 14 14 14 13 12 12 12 12 12 12 11 11 10 9 8 7 6 6 6 6 6 7 7 8 11 14 16 17 18 19 20 21 22 23 24 24 25 26 27 28 30 30 29 29 30 32 33 32 31 30 28 25 23 23 24 25 25 26 27 28 29 29 29 27 25 25 25 25 25 25 24 22 21
19 20 20 21 22 22 21 20 19 18 18 18 17 16 16 15 14 14 14 15 15 14 13 12 11 10 9 8 7 6 5 4 4 4 4 6 8 11 13 15 17 18 19 20 21 21 21 22 22 23 24 25 26 26 26 26 27 28 30 30 29 27 26 24 23 21 21 22 24 27 29 30 30 31 29 26 24 24 23 23 23 23 23 21 20
22 23 23 24 24 23 22 21 20 19 18 18 19 18 18 18 17 16 16 16 16 15 14 13 11 10 9 7 6 4 3 2 2 2 3 3 5 7 10 13 15 17 18 18 18 18 19 19 19 20 21 21 22 23 24 24 25 25 25 25 25 25 25 24 23 22 22 24 26 27 29 30 30 30 27 24 23 22 22 21 22 22 22 21 21
25 25 25 25 25 24 23 23 21 20 19 19 19 19 19 19 19 19 18 17 15 14 14 12 11 9 8 6 5 3 2 1 1 1 1 2 3 6 9 11 13 15 16 17 17 17 17 17 17 17 17 17 18 20 21 22 23 22 21 22 23 24 25 25 25 25 26 27 28 29 29 29 28 27 24 22 23 23 22 22 23 23 23 22 22
27 26 26 26 25 25 25 25 24 22 21 20 20 20 20 20 20 20 19 18 16 14 13 12 11 9 8 7 5 4 3 3 2 2 2 2 3 5 8 11 13 14 15 16 16 16 16 16 15 15 15 15 15 16 18 20 21 21 22 23 24 25 26 27 27 28 29 29 29 29 28 27 26 25 24 23 23 23 23 22 23 23 24 22 22
27 27 26 26 26 25 25 25 24 23 22 21 20 19 19 18 18 18 17 15 15 14 13 12 11 10 9 8 7 6 4 3 2 2 2 2 3 5 7 10 13 14 15 15 15 15 15 14 14 13 14 14 15 15 17 19 20 21 22 24 25 26 27 27 27 29 29 29 28 26 26 25 25 25 24 24 24 23 23 23 23 24 23 21 22
27 26 26 26 25 24 24 24 23 22 21 20 19 18 17 15 14 14 13 11 10 10 11 11 10 9 9 8 7 6 4 3 2 2 2 2 2 3 4 7 9 11 13 14 15 14 14 14 14 14 14 15 16 16 17 18 19 21 22 24 25 26 27 28 29 30 30 29 28 28 27 27 26 25 25 25 25 25 24 24 24 24 23 22 24
25 25 24 24 23 23 23 22 22 22 21 20 19 17 14 12 11 11 11 10 8 8 8 9 9 8 7 7 6 5 4 3 3 3 3 3 2 1 1 3 4 6 9 12 13 14 14 14 15 16 16 16 17 18 19 19 20 22 23 24 26 28 29 31 32 32 32 31 31 31 30 28 27 27 26 26 26 26 26 26 25 24 24 24 25
23 22 22 22 22 22 22 22 22 22 21 20 20 19 16 14 11 11 11 10 9 8 7 7 7 6 6 5 5 4 4 3 3 3 3 3 2 2 1 1 2 4 6 9 11 13 14 15 15 16 17 17 18 19 19 19 21 22 23 24 26 28 30 31 32 32 31 31 31 30 29 28 28 28 28 28 28 27 27 26 25 26 27 26 26
22 20 20 20 21 21 22 22 22 22 21 21 21 21 20 18 15 12 11 9 8 7 6 6 5 4 4 4 4 4 3 3 2 2 2 2 1 1 1 0 1 2 4 7 10 12 13 14 15 16 16 17 18 19 19 20 21 22 23 24 25 27 29 31 31 31 31 31 31 30 29 29 29 29 28 28 28 27 26 27 28 29 29 28 28
22 21 21 21 21 22 22 22 22 22 22 22 22 22 21 20 18 15 12 10 8 8 7 6 5 4 4 3 3 3 3 4 3 3 3 2 2 2 1 1 1 2 4 8 11 12 13 14 15 16 16 17 18 19 19 20 21 22 23 24 25 27 28 29 28 29 30 30 30 30 30 30 30 29 29 28 28 27 27 27 28 29 28 27 28
23 23 23 23 23 23 23 23 23 23 22 22 22 21 19 19 20 19 18 16 13 11 10 9 8 7 6 5 4 4 3 3 4 4 4 4 4 3 3 2 2 3 6 9 11 12 13 14 15 16 16 17 18 19 19 20 21 22 23 25 26 27 27 26 27 28 29 30 30 31 31 31 30 29 29 28 27 27 26 26 26 27 27 27 27
24 24 23 23 24 24 24 24 23 23 21 21 20 19 18 19 20 20 20 19 18 16 14 12 11 9 9 8 7 5 5 4 4 3 3 4 4 4 4 4 4 5 6 9 11 12 14 15 16 17 17 18 19 19 20 21 22 22 24 25 26 26 26 26 27 28 29 30 30 31 31 31 30 29 29 28 26 25 25 26 26 27 27 26 25
25 25 24 23 23 23 23 22 22 22 21 20 19 19 18 19 19 19 19 19 18 17 15 13 11 10 9 9 8 7 6 5 4 4 3 4 4 4 4 4 5 5 6 8 10 12 13 15 16 17 18 18 19 20 21 21 22 23 24 25 25 26 26 26 27 28 29 29 30 30 30 30 30 29 28 28 28 27 27 27 26 26 27 26 25
26 26 24 23 23 23 22 21 21 21 20 20 20 19 19 19 19 19 19 18 17 16 15 13 12 11 10 9 8 7 6 6 5 5 4 4 3 3 2 2 3 5 7 8 9 11 13 14 15 17 18 19 20 21 22 22 23 24 24 25 25 26 27 27 28 28 29 29 30 30 30 30 30 30 29 28 28 28 28 28 27 26 27 26 25
25 25 24 23 23 23 22 22 21 21 20 20 19 19 19 19 19 19 18 17 16 16 15 13 12 11 9 8 7 6 5 5 5 5 4 4 3 2 1 1 2 4 6 7 8 10 11 13 14 15 17 18 19 20 22 23 23 24 25 25 26 27 27 28 28 28 29 30 30 31 31 31 31 30 29 29 30 29 28 28 27 26 26 25 25
25 24 24 23 23 23 23 22 22 21 20 19 19 19 19 19 18 18 17 17 16 15 14 13 11 9 8 6 4 4 4 4 4 4 3 3 2 1 1 1 2 3 5 6 7 9 10 11 12 13 14 15 16 18 19 20 21 22 23 24 25 26 26 27 28 28 29 30 31 31 31 31 31 31 30 30 30 30 28 28 28 27 27 26 26
26 25 24 24 23 23 22 22 21 20 20 20 19 19 19 18 18 17 16 16 15 14 12 11 10 8 6 4 3 3 3 4 4 3 2 2 1 1 1 2 3 4 6 7 8 9 10 11 12 13 14 14 15 16 17 18 20 21 22 23 23 24 25 25 26 27 28 29 30 30 30 30 30 30 30 30 30 30 30 29 29 28 27 27 27
26 25 23 23 23 22 22 21 21 21 20 20 19 18 18 17 16 15 15 15 14 13 11 10 8 7 5 3 2 2 2 2 2 2 2 2 3 3 3 3 4 5 6 7 8 10 11 12 13 14 15 16 17 17 18 19 20 21 22 22 23 24 25 25 25 26 27 28 29 29 30 30 30 30 30 30 30 30 30 29 29 28 27 27 26
25 24 23 22 22 23 22 22 21 20 20 19 18 17 16 15 14 14 13 13 12 11 10 8 7 5 4 3 2 1 1 1 1 1 1 2 2 2 2 2 3 4 5 7 8 9 11 12 13 14 15 16 17 17 18 19 19 20 20 21 22 23 24 24 24 25 26 27 28 29 29 29 29 29 30 30 29 29 29 29 28 27 27 26 25
24 24 23 23 22 22 22 21 20 19 19 18 16 15 14 13 13 12 11 11 10 9 8 7 5 4 3 3 3 2 2 2 2 2 2 2 2 3 3 4 4 5 6 7 8 10 11 12 13 14 15 15 16 16 17 18 18 19 20 21 21 22 23 23 24 24 25 26 27 28 28 28 29 29 29 29 28 28 28 28 27 27 26 25 24
24 24 23 22 22 21 20 19 18 18 17 16 15 14 12 12 11 10 9 9 8 6 5 4 3 3 3 3 3 2 2 2 2 3 3 4 4 5 5 6 7 7 8 9 10 11 12 13 14 15 15 15 15 16 16 17 17 18 19 20 21 21 22 22 22 22 23 24 26 27 27 28 28 28 28 28 27 27 27 27 27 26 26 25 24
23 23 22 22 21 19 18 17 16 15 14 14 13 12 10 9 9 8 7 6 5 4 3 2 2 2 2 3 3 2 2 3 3 4 5 5 6 6 7 8 9 9 10 11 11 12 13 14 14 15 15 15 15 16 17 17 17 18 18 19 20 22 22 22 22 22 22 23 25 26 27 27 27 27 27 27 27 27 27 27 27 25 24 24 23
21 21 20 20 19 18 16 15 13 13 12 11 10 9 8 7 6 5 4 3 3 2 2 3 3 4 4 4 4 4 4 4 5 5 6 6 7 7 8 9 10 11 11 12 12 13 13 13 13 14 15 15 16 16 17 17 18 18 18 19 20 22 23 23 24 24 24 24 24 25 26 27 27 27 27 26 26 26 27 27 26 25 24 24 24
18 18 18 17 16 15 14 13 11 10 9 9 8 7 6 5 4 3 2 2 3 3 4 5 5 5 5 5 5 5 6 6 6 7 7 8 8 9 9 10 11 11 12 12 11 11 11 12 12 13 14 15 15 16 17 17 18 18 19 19 20 21 22 22 22 22 22 23 23 23 24 26 26 26 26 26 26 26 26 26 25 25 25 24 24
16 16 15 14 13 12 11 10 9 8 7 6 5 4 4 3 3 2 3 3 4 5 5 6 6 6 6 6 6 7 7 8 8 8 9 9 9 9 10 10 11 11 11 10 10 10 10 10 11 12 13 13 14 15 16 17 17 18 19 19 20 21 21 21 20 20 20 20 21 21 22 24 25 25 25 25 25 25 25 25 25 24 24 24 23
13 13 12 11 10 9 8 7 6 5 4 3 3 3 3 3 3 4 5 5 6 6 7 7 7 7 7 7 8 8 8 9 9 9 9 9 9 9 9 9 9 9 9 9 9 9 9 9 10 11 11 12 13 14 15 16 16 17 18 19 20 20 19 19 19 19 19 19 19 20 21 22 23 24 24 24 24 24 24 24 24 23 23 22 22
10 10 9 8 7 6 5 4 3 2 2 2 3 3 4 5 5 6 7 7 7 7 7 7 8 8 8 8 9 9 9 9 9 9 8 8 8 7 7 8 8 8 8 9 9 9 9 10 10 11 12 12 13 14 15 16 16 17 18 19 19 19 18 18 17 17 17 18 18 19 20 21 22 22 22 23 23 23 23 23 22 21 21 21 21
8 7 6 5 4 3 2 2 2 3 4 4 5 6 7 7 7 8 8 8 8 7 8 8 8 8 9 9 9 9 9 8 8 8 7 7 7 7 8 8 9 9 9 9 10 10 10 11 11 12 12 13 14 15 15 16 16 17 18 18 18 19 19 18 17 16 16 16 17 17 18 19 20 21 21 21 21 21 22 22 21 21 21 20 21
Wind_Direction
225 226 227 227 228 230 231 232 232 233 233 234 234 236 237 238 239 240 240 241 242 242 242 243 243 243 241 239 239 238 238 236 236 235 234 233 233 232 230 227 227 230 232 234 236 238 237 234 233 232 231 229 225 221 217 213 209 205 202 202 203 204 201 192 174 156 174 191 197 201 211 223 239 251 258 266 271 282 302 311 308 301 297 299 294
227 228 229 228 229 231 232 233 234 234 235 235 236 237 238 239 240 241 242 243 243 242 243 244 244 244 242 241 240 239 239 239 239 237 234 233 232 230 227 225 227 229 230 231 232 232 232 230 231 233 230 226 223 220 216 211 205 202 202 202 202 202 200 194 181 167 172 185 195 205 217 226 236 245 251 261 267 277 294 301 299 295 294 295 280
231 232 231 231 232 233 234 235 236 236 237 238 239 240 241 242 243 242 243 244 244 244 245 244 244 244 242 241 241 240 240 239 238 236 234 232 230 228 227 227 230 230 228 228 229 228 226 226 228 229 225 221 219 216 214 209 204 202 202 201 202 202 202 200 192 181 177 184 196 207 215 224 232 238 245 255 264 273 285 289 289 287 291 290 260
232 232 232 233 234 235 236 237 237 238 239 240 242 243 245 245 245 245 245 245 245 245 245 244 243 242 240 239 239 238 237 236 236 235 231 228 227 227 227 230 233 232 227 227 228 226 224 224 226 227 223 219 215 212 208 205 203 203 202 201 202 203 203 203 203 197 188 186 195 205 212 221 227 233 243 253 262 273 279 280 283 284 286 279 245
229 230 230 231 233 234 236 237 238 239 240 241 243 245 246 246 246 246 246 245 245 245 244 242 240 239 238 237 237 236 235 234 233 231 229 232 239 241 239 240 238 231 225 226 227 225 223 224 227 227 222 217 213 209 204 201 201 202 202 201 201 202 204 205 207 206 200 193 194 200 208 216 222 231 244 250 256 269 273 269 274 281 280 269 237
229 229 228 229 231 232 234 235 237 238 239 240 241 242 243 245 245 246 245 245 245 243 242 240 239 238 238 237 237 237 237 235 231 232 238 245 249 248 244 241 237 229 223 225 228 226 224 226 229 228 223 218 213 208 203 200 200 201 201 201 201 202 203 206 207 208 206 200 197 200 206 213 219 227 240 245 250 263 268 264 265 270 270 265 241
228 228 227 227 228 229 230 231 232 233 233 233 234 234 236 238 240 243 243 243 243 242 241 239 238 237 238 238 239 240 240 237 235 238 245 248 247 245 241 237 233 227 223 225 227 226 225 228 230 229 226 222 215 208 202 199 200 201 202 202 201 202 203 204 206 207 208 203 199 203 207 212 219 228 237 243 247 256 261 261 266 269 261 259 245
224 224 225 224 225 225 224 225 226 227 228 229 229 228 227 229 231 235 236 237 238 240 240 239 239 239 238 238 239 240 239 236 237 243 248 249 247 245 240 236 231 226 225 226 226 224 225 228 231 231 229 224 217 210 205 202 201 201 202 203 203 203 203 203 204 206 208 205 203 207 210 213 219 227 233 238 242 249 253 255 266 277 267 260 252
217 219 221 222 222 223 223 225 227 228 230 231 231 231 230 230 230 231 233 234 236 238 238 238 239 240 240 238 236 237 236 235 241 252 254 250 247 244 239 235 232 228 228 228 225 225 228 230 232 232 229 223 217 212 209 208 207 204 203 203 204 204 204 203 204 204 204 204 206 209 211 217 221 223 227 233 239 246 250 251 263 277 273 267 261
216 217 219 220 220 220 221 224 228 231 234 236 237 237 236 236 237 238 239 241 244 246 246 246 247 247 245 243 241 241 240 241 247 256 255 250 246 242 238 235 232 230 229 227 224 227 231 233 233 232 226 220 215 213 212 213 214 213 211 208 206 206 205 204 205 205 204 205 208 207 209 219 225 226 229 237 242 244 245 247 259 273 275 272 265
217 217 219 218 216 216 218 223 229 232 234 235 236 237 237 236 237 238 239 240 242 244 247 249 251 251 251 252 252 252 251 249 250 252 251 249 246 242 238 235 232 229 229 228 226 228 230 230 230 228 223 217 214 213 213 214 215 216 216 214 213 212 210 207 207 207 206 208 211 211 214 223 231 231 232 236 239 239 241 246 254 264 270 274 268
217 217 218 217 216 217 220 225 231 234 234 231 229 230 232 232 233 235 238 239 241 244 246 248 250 252 253 255 255 256 256 254 252 251 250 249 248 245 241 237 233 230 229 229 228 229 229 227 226 224 220 217 215 214 214 214 215 216 216 216 217 217 218 217 216 215 214 214 215 217 221 227 233 233 231 233 235 236 238 243 249 254 256 260 266
216 217 217 218 219 222 225 228 232 236 237 233 228 227 228 230 232 235 239 241 242 244 247 249 251 252 255 256 257 258 257 256 257 257 255 252 249 246 241 237 235 233 232 231 229 229 228 226 224 222 219 217 217 216 214 214 214 215 215 216 217 218 219 222 224 227 227 224 223 225 228 231 234 237 237 236 234 231 231 235 241 245 247 255 268
215 217 218 220 223 225 227 228 229 229 229 224 223 225 228 230 231 231 234 237 239 242 245 248 251 253 255 256 259 262 263 262 262 259 255 252 249 246 242 238 236 235 233 230 228 228 228 229 229 225 219 218 218 217 215 214 213 213 213 213 215 217 218 220 222 225 228 229 230 233 235 237 241 245 243 238 235 234 234 237 241 242 245 258 273
214 217 220 222 224 223 220 219 217 215 213 211 214 219 223 226 228 229 232 236 240 245 250 254 257 260 263 264 265 267 268 267 265 261 257 253 249 245 242 239 236 234 232 231 232 235 236 237 236 229 221 219 219 217 215 214 213 212 212 213 215 217 218 220 222 224 227 230 232 235 238 240 244 246 242 239 237 238 242 245 244 245 250 261 272
214 216 218 219 219 217 212 210 210 209 210 211 213 214 212 213 216 217 221 225 229 235 240 244 247 248 252 257 260 261 263 262 260 259 257 253 248 244 242 239 237 235 234 235 237 238 237 237 235 230 223 220 218 216 215 215 214 213 214 215 217 219 221 223 224 226 230 233 236 238 240 240 242 241 240 237 234 237 244 244 239 238 243 257 271
214 214 214 214 214 213 209 208 207 207 210 213 214 214 213 215 217 217 219 222 224 229 235 239 242 243 244 249 253 256 259 260 259 257 255 252 249 245 241 237 235 234 234 235 236 236 237 237 234 229 224 221 218 216 215 216 216 216 216 217 219 222 224 225 226 227 230 234 237 239 239 239 239 238 236 234 236 240 237 232 232 232 229 238 261
211 210 210 209 209 208 206 207 208 209 212 213 213 215 216 218 220 220 222 225 226 230 235 238 240 242 243 245 248 250 253 255 255 254 251 247 244 240 236 232 230 230 233 235 237 238 239 238 234 229 226 223 221 219 217 218 218 218 218 219 220 223 226 226 225 226 229 233 235 235 235 235 236 236 235 234 238 241 236 233 234 232 225 227 240
208 208 208 206 204 203 200 200 205 210 213 213 215 217 217 216 217 217 218 219 220 220 223 225 228 232 236 240 241 241 244 246 246 245 240 235 234 232 231 228 226 228 232 234 236 237 237 236 233 230 228 226 224 222 221 220 220 220 220 219 220 224 227 228 227 226 228 231 233 233 232 232 232 233 234 232 230 236 241 242 240 234 230 230 229
207 207 205 199 197 197 194 194 198 202 210 216 217 216 213 210 211 213 210 208 207 207 207 209 214 217 222 230 235 237 240 239 237 238 235 232 231 230 229 228 228 229 233 235 236 236 235 235 234 232 230 229 227 226 225 224 224 224 222 221 223 227 230 231 230 229 231 232 232 233 232 231 231 232 234 232 227 230 239 243 243 241 240 237 229
201 198 196 192 191 191 190 192 191 190 201 212 212 207 204 203 203 202 200 199 197 197 197 200 203 206 210 219 226 229 232 231 228 230 230 229 231 231 231 232 234 235 237 238 239 238 238 238 237 235 232 232 231 230 230 230 228 227 226 228 231 233 235 236 235 233 232 231 232 233 233 232 232 233 235 236 233 233 238 244 246 246 246 244 238
190 187 186 185 186 187 186 188 187 186 193 202 201 196 193 193 193 191 190 190 189 187 189 190 190 187 187 195 204 207 208 212 216 219 221 224 229 232 234 237 239 238 239 240 241 242 243 244 243 240 237 236 235 234 234 234 232 230 231 233 235 237 238 239 238 234 230 229 229 231 232 233 234 235 236 239 240 240 241 245 248 249 251 252 248
179 178 179 179 181 184 185 184 185 186 189 191 193 191 188 185 184 183 182 183 182 181 181 182 182 181 182 185 192 201 205 212 219 223 224 226 231 236 240 242 242 242 243 245 248 250 251 251 250 248 243 241 240 238 237 238 236 235 236 236 237 239 240 238 236 233 228 227 227 229 233 236 236 237 239 242 247 248 248 250 251 251 253 254 251
172 174 176 178 180 182 184 185 186 188 189 189 189 187 184 181 180 180 181 181 179 177 178 180 182 183 185 187 190 199 211 222 230 235 236 234 235 240 244 246 248 248 249 252 256 258 259 259 258 255 250 247 245 244 242 241 241 240 241 239 238 240 240 237 236 234 228 226 228 232 236 237 238 240 244 248 252 254 253 253 252 250 252 254 253
171 173 174 177 179 179 181 184 186 189 189 188 188 185 182 180 178 179 181 181 180 177 176 180 185 185 186 188 191 199 214 229 242 249 249 244 236 239 244 247 249 250 252 255 258 261 263 264 263 261 258 255 252 249 247 245 243 242 242 243 242 241 241 240 238 236 233 232 233 235 238 241 243 247 251 253 254 252 250 248 246 247 249 251 251
171 172 173 175 176 176 177 179 182 186 187 188 189 189 186 183 180 179 180 182 182 181 178 179 183 184 185 186 185 187 187 183 201 222 234 240 234 232 236 241 244 248 251 253 255 257 259 261 262 262 262 261 258 254 252 250 247 242 241 243 245 245 243 242 240 239 239 240 241 242 244 246 249 251 253 253 250 247 245 243 243 244 246 246 248
169 170 171 172 174 175 177 176 176 180 182 184 187 188 186 185 181 179 180 181 180 179 178 178 179 180 180 178 174 172 172 173 185 201 215 231 238 233 233 236 238 241 244 247 249 251 253 255 258 259 261 261 260 257 254 251 249 245 240 240 244 246 246 246 246 246 248 249 249 248 248 247 248 250 250 250 250 249 247 244 242 243 245 244 247
168 168 169 170 172 175 177 176 175 177 179 181 184 183 183 185 183 181 183 184 183 182 180 179 179 179 178 175 173 175 182 185 188 192 194 207 223 231 235 237 239 241 244 246 247 249 251 253 255 256 256 257 256 254 252 250 249 247 242 240 242 244 246 248 248 248 250 251 250 250 249 248 248 249 249 248 249 249 248 244 242 243 243 240 242
169 168 169 170 171 173 176 177 177 177 176 177 179 179 181 183 183 181 181 181 183 186 183 179 177 176 176 176 176 178 178 172 167 169 163 163 190 221 234 240 243 246 250 251 251 250 250 250 251 252 253 254 254 253 253 250 247 246 245 242 240 240 241 243 244 245 247 248 248 250 250 249 249 249 248 247 247 247 245 242 241 241 240 238 241
167 166 169 170 171 173 174 175 177 177 175 172 170 168 167 168 171 174 173 170 169 171 173 172 172 170 170 171 169 164 159 153 150 147 133 124 127 148 199 233 245 248 250 251 250 250 249 248 249 251 251 252 252 252 252 250 248 248 247 244 240 239 240 241 243 245 247 247 249 250 249 248 247 247 247 247 247 245 243 240 238 238 237 237 240
163 165 169 171 172 173 173 173 174 174 172 170 165 158 151 147 151 159 162 160 157 155 155 158 158 156 157 160 158 151 146 144 140 129 114 104 100 101 122 210 246 250 250 248 247 247 247 247 250 252 252 252 254 255 255 254 252 252 251 248 245 243 243 243 245 246 247 247 249 250 249 248 248 248 248 248 247 244 242 239 236 235 235 234 236
161 164 169 171 172 173 172 172 171 169 168 167 164 159 152 144 140 144 148 149 147 147 149 153 156 160 166 169 168 164 161 160 152 137 128 116 103 97 106 169 255 268 259 249 247 250 251 252 254 258 259 258 259 261 261 259 259 259 257 254 253 251 251 251 252 250 249 249 250 250 250 250 250 250 250 249 247 244 241 237 234 233 234 233 234
161 163 166 167 169 169 169 169 169 168 167 166 164 162 158 150 143 139 139 141 143 146 149 151 156 166 176 181 186 188 189 197 200 192 185 180 175 180 186 198 237 253 240 237 244 252 257 259 262 265 266 267 269 271 270 268 267 266 263 261 261 261 262 262 260 256 254 253 252 252 253 253 252 252 251 249 247 244 240 237 235 233 233 232 233
161 162 165 166 166 166 167 167 167 167 168 167 166 165 162 156 150 143 138 135 132 130 131 132 133 137 139 140 149 158 170 185 194 196 198 195 191 191 193 202 221 227 229 237 248 257 262 265 269 272 274 276 277 276 275 275 274 272 270 269 269 269 269 268 264 261 260 258 256 254 254 254 253 252 251 250 248 245 242 240 237 234 232 232 233
158 159 162 165 166 166 167 168 167 167 167 167 166 164 159 155 153 149 144 140 135 129 127 129 130 132 131 129 129 132 137 144 151 159 174 179 179 184 195 214 227 227 229 240 251 259 265 270 275 279 281 281 281 281 280 279 278 277 275 275 275 274 273 270 267 266 266 263 260 259 258 257 255 253 253 252 249 246 244 243 240 237 236 235 236
156 156 159 163 166 166 166 167 166 165 164 162 161 159 155 154 153 151 149 145 140 135 133 133 132 134 135 133 129 126 124 124 123 123 134 148 162 178 197 223 244 251 252 254 258 263 269 274 279 283 285 286 287 287 286 284 284 283 281 280 279 277 276 273 272 271 269 266 264 264 262 260 258 256 254 252 250 248 247 246 244 242 240 238 237
156 156 158 161 163 162 161 161 161 160 158 156 155 154 152 151 151 149 147 144 140 136 135 136 137 134 129 125 123 122 120 119 118 117 122 136 155 174 192 234 266 277 280 282 282 281 281 283 286 289 292 293 294 294 293 292 290 289 288 286 283 281 280 278 277 275 272 269 268 267 264 263 262 259 255 252 251 250 248 247 246 244 243 240 237
155 155 156 158 158 157 155 154 154 154 153 153 153 152 149 148 148 146 143 140 137 134 133 135 135 128 117 112 114 118 121 122 123 122 117 121 133 141 150 243 283 294 298 301 303 301 300 301 301 301 301 302 302 301 300 298 297 295 293 290 287 285 283 281 279 276 273 271 270 269 267 266 264 261 256 253 251 251 249 247 245 244 242 239 234
150 151 153 155 155 155 154 152 152 152 152 151 152 152 150 148 146 144 141 138 136 133 131 129 124 114 107 106 107 109 113 113 108 101 98 101 109 116 145 265 293 308 309 309 312 312 312 312 311 309 308 307 306 306 305 304 302 300 298 295 292 288 285 282 279 276 274 272 271 271 269 268 266 264 259 255 253 252 251 249 246 243 241 238 235
148 149 152 154 154 154 154 153 153 153 152 153 153 152 149 146 143 142 140 136 132 129 126 121 113 104 101 99 89 80 86 87 77 60 51 48 33 360 322 305 304 304 303 305 307 307 306 305 304 303 302 302 303 303 303 303 302 301 300 298 296 292 290 287 283 280 277 275 274 272 271 270 269 266 260 256 255 255 253 251 249 245 243 241 239
149 149 152 154 154 153 153 152 153 153 152 152 151 148 144 141 140 139 136 131 125 123 121 115 109 106 105 104 92 67 59 58 44 17 2 355 343 334 326 315 306 301 298 299 299 298 298 297 296 297 297 297 298 299 299 299 300 300 299 297 295 293 291 289 286 284 281 279 276 274 272 271 270 265 261 260 259 257 254 252 251 248 245 244 242
150 149 151 153 154 153 151 149 149 149 148 147 145 142 140 138 137 135 130 125 122 122 120 116 115 119 127 137 152 173 215 252 281 303 320 328 324 321 319 309 299 296 295 296 296 298 297 296 296 298 299 300 302 303 303 303 303 302 300 298 296 294 292 290 288 286 284 281 278 276 274 273 270 266 264 262 260 257 254 252 250 248 245 243 240
150 149 149 150 151 150 147 145 146 146 144 143 141 139 138 136 134 130 127 123 123 124 125 126 132 144 162 184 201 211 223 233 245 263 279 286 290 292 290 287 286 287 288 288 291 293 294 295 297 298 299 301 303 305 305 306 306 305 303 301 298 295 293 291 290 289 286 284 282 280 278 276 272 268 264 261 258 255 254 252 249 246 244 242 238
147 145 145 145 144 142 141 143 144 143 142 140 137 134 133 132 130 127 126 125 125 128 134 143 158 176 197 218 228 230 239 249 256 267 275 281 283 284 286 288 288 287 287 287 288 290 292 294 296 297 297 298 299 300 301 302 302 302 302 302 301 299 296 295 294 293 291 289 286 283 280 277 273 268 264 260 256 253 251 250 247 244 242 239 235
144 142 142 141 139 138 139 140 140 138 137 135 133 130 129 129 128 127 129 130 134 143 159 180 210 229 241 252 260 267 274 283 286 287 288 289 287 287 289 290 290 291 292 292 293 295 296 299 300 301 302 302 302 301 301 302 301 299 298 297 296 296 295 294 293 293 292 290 287 284 281 277 273 269 264 261 257 253 251 249 246 242 239 236 233
141 140 139 138 136 135 135 134 134 133 132 132 130 128 127 129 130 132 137 145 158 183 208 226 240 249 257 268 280 290 295 296 295 294 292 291 291 291 291 292 292 293 296 297 299 302 303 304 305 306 307 307 308 307 307 307 306 303 301 298 295 293 293 292 290 289 287 285 284 283 281 278 274 271 267 264 260 255 252 250 246 241 237 235 232
137 136 135 134 132 131 130 130 130 129 128 128 128 128 130 136 141 150 170 191 208 225 233 238 245 253 264 275 284 291 294 294 294 293 291 291 292 293 293 294 295 297 300 302 304 306 306 306 307 308 309 311 312 312 312 312 311 309 308 306 304 301 299 297 293 288 284 281 280 280 279 277 274 272 269 265 261 256 252 249 246 241 237 234 231
130 129 127 127 126 126 125 124 124 125 125 127 132 136 145 159 173 190 210 223 228 235 240 247 256 265 272 280 284 287 288 288 288 290 291 293 295 296 296 297 299 301 302 304 306 307 309 311 314 315 316 317 318 319 319 318 316 315 313 311 310 308 307 304 299 293 287 283 280 281 280 277 274 272 270 265 261 257 252 249 245 241 236 233 230
121 119 117 116 116 116 117 117 119 123 129 137 151 166 183 202 214 221 228 234 237 244 251 258 264 271 275 279 281 282 283 285 288 291 293 295 296 296 295 295 298 301 303 306 310 314 316 318 319 320 321 323 323 324 323 322 321 320 319 318 316 314 310 307 301 295 290 286 282 282 283 281 277 273 270 266 262 258 253 249 245 240 235 230 226
109 106 105 106 106 109 115 122 131 149 172 191 205 214 221 227 229 232 237 242 246 252 260 265 269 274 276 278 279 280 282 284 287 289 291 291 290 291 291 293 298 303 307 311 315 316 317 318 319 320 322 324 324 324 324 324 325 324 323 322 321 319 313 307 300 293 288 285 283 282 282 282 279 275 271 267 262 258 253 248 243 237 232 227 222
103 102 104 108 114 126 148 175 199 218 226 230 231 232 234 237 239 242 248 252 256 260 263 266 269 271 271 273 276 277 278 280 282 283 285 288 291 293 296 299 304 309 311 312 313 313 313 315 318 319 321 322 322 323 323 323 323 324 325 325 324 321 315 309 303 297 291 286 282 279 279 279 277 274 271 266 261 256 252 247 241 234 229 224 220